Time,TemperatureF,DewpointF,PressureIn,WindDirection,WindDirectionDegrees,WindSpeedMPH,WindSpeedGustMPH,Humidity,HourlyPrecipIn,Conditions,Clouds,dailyrainin,SoftwareType,DateUTC
2013-04-23 00:03:00,52.0,39.0,-100.00,NE,50,1.0,3.0,60,0.00,,,-99.99,,2013-04-23 04:03:00,
2013-04-23 00:12:00,51.0,40.0,-100.00,ESE,115,1.0,4.0,67,0.00,,,-99.99,,2013-04-23 04:12:00,
2013-04-23 00:23:00,49.0,40.0,-100.00,ESE,105,1.0,3.0,72,0.00,,,-99.99,,2013-04-23 04:23:00,
2013-04-23 00:33:00,48.0,41.0,-100.00,ESE,120,1.0,2.0,75,0.00,,,-99.99,,2013-04-23 04:33:00,
2013-04-23 00:43:00,48.0,40.0,-100.00,East,85,1.0,3.0,74,0.00,,,-99.99,,2013-04-23 04:43:00,
2013-04-23 00:53:00,50.0,40.0,-100.00,ENE,70,0.0,2.0,68,0.00,,,-99.99,,2013-04-23 04:53:00,
2013-04-23 01:02:00,49.0,39.0,-100.00,East,100,1.0,2.0,68,0.00,,,-99.99,,2013-04-23 05:02:00,
2013-04-23 01:12:00,50.0,39.0,-100.00,ESE,105,1.0,3.0,65,0.00,,,-99.99,,2013-04-23 05:12:00,
2013-04-23 01:22:00,49.0,39.0,-100.00,ENE,75,1.0,3.0,67,0.00,,,-99.99,,2013-04-23 05:22:00,
2013-04-23 01:32:00,48.0,39.0,-100.00,ENE,60,1.0,3.0,72,0.00,,,-99.99,,2013-04-23 05:32:00,
2013-04-23 01:42:00,48.0,38.0,-100.00,NE,55,0.0,2.0,69,0.00,,,-99.99,,2013-04-23 05:42:00,
2013-04-23 01:52:00,49.0,38.0,-100.00,East,100,1.0,2.0,66,0.00,,,-99.99,,2013-04-23 05:52:00,
2013-04-23 02:02:00,48.0,38.0,-100.00,East,95,2.0,2.0,67,0.00,,,-99.99,,2013-04-23 06:02:00,
2013-04-23 02:12:00,47.0,38.0,-100.00,East,100,1.0,2.0,70,0.00,,,-99.99,,2013-04-23 06:12:00,
2013-04-23 02:21:00,48.0,38.0,-100.00,ENE,75,1.0,2.0,70,0.00,,,-99.99,,2013-04-23 06:21:00,
2013-04-23 02:33:00,47.0,38.0,-100.00,East,90,1.0,2.0,69,0.00,,,-99.99,,2013-04-23 06:33:00,
2013-04-23 02:42:00,47.0,38.0,-100.00,ENE,60,1.0,2.0,71,0.00,,,-99.99,,2013-04-23 06:42:00,
2013-04-23 02:52:00,47.0,38.0,-100.00,East,95,1.0,3.0,70,0.00,,,-99.99,,2013-04-23 06:52:00,
2013-04-23 03:02:00,46.0,38.0,-100.00,ESE,105,1.0,3.0,74,0.00,,,-99.99,,2013-04-23 07:02:00,
2013-04-23 03:11:00,46.0,38.0,-100.00,NE,40,1.0,3.0,73,0.00,,,-99.99,,2013-04-23 07:11:00,
2013-04-23 03:21:00,46.0,38.0,-100.00,ESE,110,1.0,3.0,72,0.00,,,-99.99,,2013-04-23 07:21:00,
2013-04-23 03:32:00,46.0,37.0,-100.00,ENE,70,0.0,3.0,73,0.00,,,-99.99,,2013-04-23 07:32:00,
2013-04-23 03:42:00,44.0,37.0,-100.00,ESE,110,1.0,3.0,76,0.00,,,-99.99,,2013-04-23 07:42:00,
2013-04-23 03:52:00,45.0,37.0,-100.00,NE,45,0.0,3.0,72,0.00,,,-99.99,,2013-04-23 07:52:00,
2013-04-23 04:02:00,44.0,37.0,-100.00,NNE,15,0.0,3.0,77,0.00,,,-99.99,,2013-04-23 08:02:00,
2013-04-23 04:11:00,43.0,37.0,-100.00,NE,40,1.0,3.0,79,0.00,,,-99.99,,2013-04-23 08:11:00,
2013-04-23 04:21:00,44.0,37.0,-100.00,ENE,65,0.0,2.0,75,0.00,,,-99.99,,2013-04-23 08:21:00,
2013-04-23 04:32:00,44.0,37.0,-100.00,ESE,115,0.0,2.0,74,0.00,,,-99.99,,2013-04-23 08:32:00,
2013-04-23 04:42:00,45.0,36.0,-100.00,NE,35,1.0,3.0,72,0.00,,,-99.99,,2013-04-23 08:42:00,
2013-04-23 04:52:00,44.0,36.0,-100.00,NE,40,0.0,2.0,73,0.00,,,-99.99,,2013-04-23 08:52:00,
2013-04-23 05:02:00,44.0,36.0,-100.00,NE,50,0.0,2.0,75,0.00,,,-99.99,,2013-04-23 09:02:00,
2013-04-23 05:11:00,44.0,36.0,-100.00,East,90,0.0,3.0,73,-99.99,,,-99.99,,2013-04-23 09:11:00,
2013-04-23 05:21:00,44.0,35.0,-100.00,East,80,0.0,3.0,69,0.00,,,-99.99,,2013-04-23 09:21:00,
2013-04-23 05:33:00,42.0,36.0,-100.00,ESE,115,1.0,3.0,79,0.00,,,-99.99,,2013-04-23 09:33:00,
2013-04-23 05:43:00,44.0,35.0,-100.00,ENE,75,0.0,3.0,72,0.00,,,-99.99,,2013-04-23 09:43:00,
2013-04-23 05:52:00,43.0,36.0,-100.00,ESE,105,0.0,2.0,76,0.00,,,-99.99,,2013-04-23 09:52:00,
2013-04-23 06:03:00,44.0,36.0,-100.00,ENE,70,0.0,2.0,73,0.00,,,-99.99,,2013-04-23 10:03:00,
2013-04-23 06:13:00,43.0,35.0,-100.00,East,95,0.0,2.0,75,0.00,,,-99.99,,2013-04-23 10:13:00,
2013-04-23 06:23:00,43.0,35.0,-100.00,ESE,115,0.0,2.0,74,0.00,,,-99.99,,2013-04-23 10:23:00,
2013-04-23 06:33:00,42.0,35.0,-100.00,ESE,110,1.0,3.0,77,0.00,,,-99.99,,2013-04-23 10:33:00,
2013-04-23 06:42:00,41.0,35.0,-100.00,ENE,60,2.0,4.0,80,0.00,,,-99.99,,2013-04-23 10:42:00,
2013-04-23 06:52:00,42.0,35.0,-100.00,ENE,65,1.0,5.0,77,0.00,,,-99.99,,2013-04-23 10:52:00,
2013-04-23 07:03:00,41.0,35.0,-100.00,ENE,60,1.0,3.0,81,0.00,,,-99.99,,2013-04-23 11:03:00,
2013-04-23 07:12:00,41.0,35.0,-100.00,ENE,65,1.0,2.0,81,0.00,,,-99.99,,2013-04-23 11:12:00,
2013-04-23 07:21:00,40.0,36.0,-100.00,SE,125,1.0,3.0,84,0.00,,,-99.99,,2013-04-23 11:21:00,
2013-04-23 07:32:00,41.0,36.0,-100.00,ESE,120,0.0,2.0,82,0.00,,,-99.99,,2013-04-23 11:32:00,
2013-04-23 07:43:00,42.0,37.0,-100.00,East,95,0.0,3.0,81,0.00,,,-99.99,,2013-04-23 11:43:00,
2013-04-23 07:52:00,44.0,37.0,-100.00,SE,140,0.0,1.0,77,0.00,,,-99.99,,2013-04-23 11:52:00,
2013-04-23 08:02:00,45.0,38.0,-100.00,ESE,110,0.0,2.0,75,0.00,,,-99.99,,2013-04-23 12:02:00,
2013-04-23 08:12:00,46.0,38.0,-100.00,NNE,30,0.0,0.0,73,0.00,,,-99.99,,2013-04-23 12:12:00,
2013-04-23 08:22:00,47.0,40.0,-100.00,ENE,70,0.0,0.0,75,0.00,,,-99.99,,2013-04-23 12:22:00,
2013-04-23 08:32:00,48.0,40.0,-100.00,ESE,105,0.0,3.0,73,0.00,,,-99.99,,2013-04-23 12:32:00,
2013-04-23 08:42:00,48.0,41.0,-100.00,ESE,110,0.0,2.0,74,0.00,,,-99.99,,2013-04-23 12:42:00,
2013-04-23 08:52:00,50.0,38.0,-100.00,East,95,0.0,2.0,64,0.00,,,-99.99,,2013-04-23 12:52:00,
2013-04-23 09:01:00,53.0,35.0,-100.00,ESE,115,0.0,4.0,50,0.00,,,-99.99,,2013-04-23 13:01:00,
2013-04-23 09:11:00,55.0,32.0,-100.00,SE,140,1.0,4.0,42,0.00,,,-99.99,,2013-04-23 13:11:00,
2013-04-23 09:32:00,56.0,33.0,-100.00,SSW,200,1.0,7.0,40,0.00,,,-99.99,,2013-04-23 13:32:00,
2013-04-23 09:42:00,58.0,33.0,-100.00,ESE,115,4.0,6.0,39,0.00,,,-99.99,,2013-04-23 13:42:00,
2013-04-23 09:52:00,58.0,33.0,-100.00,SSE,160,1.0,5.0,38,0.00,,,-99.99,,2013-04-23 13:52:00,
2013-04-23 10:02:00,59.0,32.0,-100.00,SSE,150,4.0,6.0,36,0.00,,,-99.99,,2013-04-23 14:02:00,
2013-04-23 10:11:00,61.0,34.0,-100.00,ESE,120,1.0,6.0,36,0.00,,,-99.99,,2013-04-23 14:11:00,
2013-04-23 10:22:00,62.0,33.0,-100.00,East,80,2.0,5.0,33,0.00,,,-99.99,,2013-04-23 14:22:00,
2013-04-23 10:32:00,62.0,33.0,-100.00,SSE,150,3.0,7.0,32,0.00,,,-99.99,,2013-04-23 14:32:00,
2013-04-23 10:42:00,64.0,33.0,-100.00,East,95,2.0,6.0,31,0.00,,,-99.99,,2013-04-23 14:42:00,
2013-04-23 10:52:00,64.0,34.0,-100.00,SSW,210,2.0,9.0,31,0.00,,,-99.99,,2013-04-23 14:52:00,
2013-04-23 11:01:00,65.0,34.0,-100.00,SSE,150,2.0,7.0,31,0.00,,,-99.99,,2013-04-23 15:01:00,
2013-04-23 11:12:00,65.0,34.0,-100.00,SSE,150,2.0,7.0,31,0.00,,,-99.99,,2013-04-23 15:12:00,
2013-04-23 11:21:00,66.0,35.0,-100.00,SE,145,4.0,8.0,31,0.00,,,-99.99,,2013-04-23 15:21:00,
2013-04-23 11:32:00,67.0,35.0,-100.00,SSE,160,3.0,9.0,30,0.00,,,-99.99,,2013-04-23 15:32:00,
2013-04-23 11:42:00,67.0,36.0,-100.00,South,175,2.0,9.0,31,0.00,,,-99.99,,2013-04-23 15:42:00,
2013-04-23 11:53:00,68.0,36.0,-100.00,South,185,2.0,6.0,30,0.00,,,-99.99,,2013-04-23 15:53:00,
2013-04-23 12:03:00,69.0,38.0,-100.00,South,170,3.0,8.0,32,0.00,,,-99.99,,2013-04-23 16:03:00,
2013-04-23 12:12:00,69.0,37.0,-100.00,SE,145,4.0,7.0,30,0.00,,,-99.99,,2013-04-23 16:12:00,
2013-04-23 12:23:00,71.0,38.0,-100.00,South,190,3.0,6.0,30,0.00,,,-99.99,,2013-04-23 16:23:00,
2013-04-23 12:34:00,71.0,39.0,-100.00,SSE,150,2.0,9.0,30,0.00,,,-99.99,,2013-04-23 16:34:00,
2013-04-23 12:43:00,72.0,40.0,-100.00,SW,235,6.0,9.0,31,0.00,,,-99.99,,2013-04-23 16:43:00,
2013-04-23 12:52:00,73.0,40.0,-100.00,SW,225,2.0,9.0,30,0.00,,,-99.99,,2013-04-23 16:52:00,
2013-04-23 13:02:00,73.0,40.0,-100.00,SSE,155,4.0,8.0,29,0.00,,,-99.99,,2013-04-23 17:02:00,
2013-04-23 13:12:00,74.0,41.0,-100.00,SE,145,6.0,12.0,30,0.00,,,-99.99,,2013-04-23 17:12:00,
2013-04-23 13:22:00,73.0,39.0,-100.00,South,185,5.0,9.0,29,0.00,,,-99.99,,2013-04-23 17:22:00,
2013-04-23 13:33:00,74.0,39.0,-100.00,SW,230,6.0,9.0,28,0.00,,,-99.99,,2013-04-23 17:33:00,
2013-04-23 13:42:00,73.0,39.0,-100.00,SSE,150,6.0,10.0,29,0.00,,,-99.99,,2013-04-23 17:42:00,
2013-04-23 13:53:00,74.0,39.0,-100.00,South,190,5.0,11.0,28,0.00,,,-99.99,,2013-04-23 17:53:00,
2013-04-23 14:02:00,76.0,40.0,-100.00,WSW,250,5.0,10.0,28,0.00,,,-99.99,,2013-04-23 18:02:00,
2013-04-23 14:12:00,74.0,40.0,-100.00,SW,225,6.0,16.0,28,0.00,,,-99.99,,2013-04-23 18:12:00,
2013-04-23 14:22:00,75.0,39.0,-100.00,SSW,195,3.0,11.0,26,0.00,,,-99.99,,2013-04-23 18:22:00,
2013-04-23 14:32:00,74.0,40.0,-100.00,SSE,155,4.0,7.0,28,0.00,,,-99.99,,2013-04-23 18:32:00,
2013-04-23 14:42:00,74.0,41.0,-100.00,SSE,160,1.0,11.0,29,0.00,,,-99.99,,2013-04-23 18:42:00,
2013-04-23 14:52:00,75.0,40.0,-100.00,SW,235,2.0,6.0,27,0.00,,,-99.99,,2013-04-23 18:52:00,
2013-04-23 15:02:00,75.0,41.0,-100.00,SW,220,6.0,12.0,28,0.00,,,-99.99,,2013-04-23 19:02:00,
2013-04-23 15:11:00,75.0,40.0,-100.00,WNW,295,2.0,9.0,28,0.00,,,-99.99,,2013-04-23 19:11:00,
2013-04-23 15:22:00,76.0,40.0,-100.00,WSW,250,4.0,10.0,27,0.00,,,-99.99,,2013-04-23 19:22:00,
2013-04-23 15:32:00,76.0,41.0,-100.00,SSE,150,4.0,16.0,28,0.00,,,-99.99,,2013-04-23 19:32:00,
2013-04-23 15:42:00,75.0,40.0,-100.00,SSW,195,1.0,9.0,27,0.00,,,-99.99,,2013-04-23 19:42:00,
2013-04-23 15:52:00,76.0,40.0,-100.00,SW,215,3.0,7.0,27,0.00,,,-99.99,,2013-04-23 19:52:00,
2013-04-23 16:02:00,75.0,40.0,-100.00,SSW,210,6.0,11.0,28,0.00,,,-99.99,,2013-04-23 20:02:00,
2013-04-23 16:11:00,76.0,40.0,-100.00,South,175,2.0,9.0,28,0.00,,,-99.99,,2013-04-23 20:11:00,
2013-04-23 16:22:00,77.0,40.0,-100.00,West,260,5.0,12.0,27,0.00,,,-99.99,,2013-04-23 20:22:00,
2013-04-23 16:32:00,75.0,40.0,-100.00,SSW,210,5.0,11.0,28,0.00,,,-99.99,,2013-04-23 20:32:00,
2013-04-23 16:42:00,75.0,41.0,-100.00,SSW,205,3.0,7.0,28,0.00,,,-99.99,,2013-04-23 20:42:00,
2013-04-23 16:52:00,77.0,41.0,-100.00,West,260,4.0,7.0,28,0.00,,,-99.99,,2013-04-23 20:52:00,
2013-04-23 17:02:00,76.0,41.0,-100.00,SW,225,1.0,7.0,28,0.00,,,-99.99,,2013-04-23 21:02:00,
2013-04-23 17:12:00,76.0,40.0,-100.00,SW,225,5.0,11.0,27,0.00,,,-99.99,,2013-04-23 21:12:00,
2013-04-23 17:22:00,76.0,41.0,-100.00,WSW,250,5.0,9.0,28,0.00,,,-99.99,,2013-04-23 21:22:00,
2013-04-23 17:33:00,75.0,41.0,-100.00,WSW,250,6.0,12.0,28,0.00,,,-99.99,,2013-04-23 21:33:00,
2013-04-23 17:43:00,75.0,41.0,-100.00,WSW,255,6.0,12.0,29,0.00,,,-99.99,,2013-04-23 21:43:00,
2013-04-23 17:52:00,75.0,41.0,-100.00,WSW,240,6.0,11.0,29,0.00,,,-99.99,,2013-04-23 21:52:00,
2013-04-23 18:03:00,75.0,41.0,-100.00,West,270,4.0,11.0,29,0.00,,,-99.99,,2013-04-23 22:03:00,
2013-04-23 18:12:00,75.0,41.0,-100.00,West,260,4.0,9.0,29,0.00,,,-99.99,,2013-04-23 22:12:00,
2013-04-23 18:22:00,74.0,40.0,-100.00,West,260,6.0,11.0,29,0.00,,,-99.99,,2013-04-23 22:22:00,
2013-04-23 18:33:00,74.0,41.0,-100.00,SSW,200,2.0,8.0,30,0.00,,,-99.99,,2013-04-23 22:33:00,
2013-04-23 18:42:00,73.0,41.0,-100.00,SSW,200,2.0,9.0,30,0.00,,,-99.99,,2013-04-23 22:42:00,
2013-04-23 18:52:00,73.0,41.0,-100.00,South,190,2.0,5.0,30,0.00,,,-99.99,,2013-04-23 22:52:00,
2013-04-23 19:03:00,73.0,41.0,-100.00,SW,215,2.0,4.0,30,0.00,,,-99.99,,2013-04-23 23:03:00,
2013-04-23 19:12:00,73.0,41.0,-100.00,SE,135,2.0,5.0,31,0.00,,,-99.99,,2013-04-23 23:12:00,
2013-04-23 19:22:00,73.0,41.0,-100.00,WSW,245,0.0,6.0,31,0.00,,,-99.99,,2013-04-23 23:22:00,
2013-04-23 19:32:00,73.0,41.0,-100.00,South,180,0.0,3.0,31,0.00,,,-99.99,,2013-04-23 23:32:00,
2013-04-23 19:42:00,73.0,42.0,-100.00,SE,145,0.0,2.0,32,0.00,,,-99.99,,2013-04-23 23:42:00,
2013-04-23 19:52:00,72.0,42.0,-100.00,SW,230,0.0,4.0,33,0.00,,,-99.99,,2013-04-23 23:52:00,
2013-04-23 20:02:00,71.0,45.0,-100.00,SE,130,0.0,3.0,38,0.00,,,-99.99,,2013-04-24 00:02:00,
2013-04-23 20:11:00,71.0,44.0,-100.00,East,80,0.0,2.0,38,0.00,,,-99.99,,2013-04-24 00:11:00,
2013-04-23 20:22:00,69.0,43.0,-100.00,NE,55,0.0,0.0,38,0.00,,,-99.99,,2013-04-24 00:22:00,
2013-04-23 20:32:00,69.0,45.0,-100.00,SE,140,0.0,4.0,43,0.00,,,-99.99,,2013-04-24 00:32:00,
2013-04-23 20:41:00,69.0,44.0,-100.00,ENE,70,0.0,0.0,41,0.00,,,-99.99,,2013-04-24 00:41:00,
2013-04-23 20:52:00,68.0,45.0,-100.00,ENE,75,0.0,1.0,44,0.00,,,-99.99,,2013-04-24 00:52:00,
2013-04-23 21:02:00,67.0,46.0,-100.00,SSE,150,0.0,0.0,47,0.00,,,-99.99,,2013-04-24 01:02:00,
2013-04-23 21:11:00,67.0,46.0,-100.00,NE,35,0.0,1.0,46,0.00,,,-99.99,,2013-04-24 01:11:00,
2013-04-23 21:21:00,66.0,48.0,-100.00,ESE,110,0.0,3.0,52,0.00,,,-99.99,,2013-04-24 01:21:00,
2013-04-23 21:32:00,65.0,48.0,-100.00,ENE,70,0.0,3.0,52,0.00,,,-99.99,,2013-04-24 01:32:00,
2013-04-23 21:42:00,66.0,46.0,-100.00,NNE,25,0.0,0.0,49,0.00,,,-99.99,,2013-04-24 01:42:00,
2013-04-23 21:52:00,65.0,46.0,-100.00,ENE,75,0.0,1.0,50,0.00,,,-99.99,,2013-04-24 01:52:00,
2013-04-23 22:02:00,64.0,47.0,-100.00,East,95,0.0,2.0,54,0.00,,,-99.99,,2013-04-24 02:02:00,
2013-04-23 22:18:00,66.0,44.0,-100.00,ENE,70,0.0,2.0,45,0.00,,,-99.99,,2013-04-24 02:18:00,
2013-04-23 22:30:00,66.0,44.0,-100.00,NE,40,0.0,0.0,44,0.00,,,-99.99,,2013-04-24 02:30:00,
2013-04-23 22:40:00,66.0,45.0,-100.00,NE,40,0.0,0.0,45,0.00,,,-99.99,,2013-04-24 02:40:00,
2013-04-23 22:49:00,64.0,47.0,-100.00,SE,140,0.0,0.0,54,0.00,,,-99.99,,2013-04-24 02:49:00,
2013-04-23 22:56:00,62.0,48.0,-100.00,South,185,0.0,0.0,59,0.00,,,-99.99,,2013-04-24 02:56:00,
2013-04-23 23:11:00,62.0,46.0,-100.00,West,270,0.0,0.0,57,0.00,,,-99.99,,2013-04-24 03:11:00,
2013-04-23 23:29:00,62.0,46.0,-100.00,ENE,70,0.0,2.0,55,0.00,,,-99.99,,2013-04-24 03:29:00,
2013-04-23 23:41:00,62.0,47.0,-100.00,ENE,70,1.0,3.0,58,0.00,,,-99.99,,2013-04-24 03:41:00,
2013-04-23 23:50:00,61.0,46.0,-100.00,NE,35,0.0,3.0,58,0.00,,,-99.99,,2013-04-24 03:50:00,
2013-04-23 23:56:00,60.0,47.0,-100.00,WNW,285,0.0,1.0,62,0.00,,,-99.99,,2013-04-24 03:56:00,